EW9931 Weather Reports


Display with metric or nautical units.
time (UTC)temp
F
wind
direction
speed
MPH
gust
MPH
rain 1hr
in
rain 24hr
in
rain mn
in
humidity
%
barometer
mb
20260510220053 75 237 1.0 0.0 0.00 0.00 0.00 19 1004.9
20260510214550 76 357 1.0 0.0 0.00 0.00 0.00 19 1005.1
20260510213056 76 213 1.0 0.0 0.00 0.00 0.00 17 1005.2
20260510211545 76 240 0.0 0.0 0.00 0.00 0.00 17 1005.2
20260510210041 75 319 1.0 0.0 0.00 0.00 0.00 17 1005.3
20260510204548 75 45 1.0 0.0 0.00 0.00 0.00 16 1005.4
20260510203039 75 236 1.0 0.0 0.00 0.00 0.00 15 1005.7
20260510201536 75 30 0.0 0.0 0.00 0.00 0.00 15 1006.3
20260510200032 75 301 0.0 0.0 0.00 0.00 0.00 15 1005.8
20260510194528 75 41 1.0 0.0 0.00 0.00 0.00 15 1005.9
20260510193023 74 0 1.0 0.0 0.00 0.00 0.00 16 1005.6
20260510191527 74 38 1.0 0.0 0.00 0.00 0.00 15 1006.0
20260510190031 73 45 1.0 0.0 0.00 0.00 0.00 16 1006.0
20260510184514 73 54 1.0 0.0 0.00 0.00 0.00 17 1006.0
20260510183011 72 83 1.0 0.0 0.00 0.00 0.00 17 1006.4
20260510181532 71 75 0.0 0.0 0.00 0.00 0.00 19 1006.4
20260510180021 71 88 0.0 0.0 0.00 0.00 0.00 19 1006.5
20260510174510 70 130 0.0 0.0 0.00 0.00 0.00 17 1006.5
20260510173011 70 306 0.0 0.0 0.00 0.00 0.00 18 1006.4
20260510171505 70 285 0.0 0.0 0.00 0.00 0.00 16 1006.4
20260510170004 70 304 0.0 0.0 0.00 0.00 0.00 13 1005.8
20260510164502 69 38 0.0 0.0 0.00 0.00 0.00 13 1005.5
20260510163106 68 69 0.0 0.0 0.00 0.00 0.00 16 1005.8
20260510161601 68 65 0.0 0.0 0.00 0.00 0.00 17 1005.8
20260510160058 66 161 0.0 0.0 0.00 0.00 0.00 14 1005.4
20260510154553 65 124 0.0 0.0 0.00 0.00 0.00 12 1005.8
20260510153053 64 49 0.0 0.0 0.00 0.00 0.00 13 1005.8
20260510151544 62 49 0.0 0.0 0.00 0.00 0.00 13 1006.2
20260510150044 60 71 0.0 0.0 0.00 0.00 0.00 15 1005.4
20260510144546 58 72 0.0 0.0 0.00 0.00 0.00 18 1005.7
20260510143032 55 133 0.0 0.0 0.00 0.00 0.00 21 1006.2
20260510141528 53 229 0.0 0.0 0.00 0.00 0.00 24 1006.5
20260510140028 51 229 0.0 0.0 0.00 0.00 0.00 25 1005.9
20260510134523 50 229 0.0 0.0 0.00 0.00 0.00 25 1005.7
20260510133021 49 229 0.0 0.0 0.00 0.00 0.00 25 1006.0
20260510131519 49 229 0.0 0.0 0.00 0.00 0.00 23 1005.9
20260510130018 48 229 0.0 0.0 0.00 0.00 0.00 24 1004.9
20260510124516 48 229 0.0 0.0 0.00 0.00 0.00 23 1004.9
20260510123015 48 229 0.0 0.0 0.00 0.00 0.00 24 1004.8
20260510121515 48 229 0.0 0.0 0.00 0.00 0.00 23 1004.9
20260510120014 48 229 0.0 0.0 0.00 0.00 0.00 23 1004.4
20260510114514 48 229 0.0 0.0 0.00 0.00 0.00 22 1004.5
20260510113019 47 229 0.0 0.0 0.00 0.00 0.00 22 1004.5
20260510111512 47 229 0.0 0.0 0.00 0.00 0.00 22 1004.4
20260510110011 47 229 0.0 0.0 0.00 0.00 0.00 22 1004.5
20260510104512 47 229 0.0 0.0 0.00 0.00 0.00 22 1004.5
20260510103010 47 229 0.0 0.0 0.00 0.00 0.00 22 1004.3
20260510101509 47 229 0.0 0.0 0.00 0.00 0.00 24 1004.1
20260510100008 47 229 0.0 0.0 0.00 0.00 0.00 23 1004.1
20260510094507 48 229 0.0 0.0 0.00 0.00 0.00 24 1004.2
20260510093008 48 229 0.0 0.0 0.00 0.00 0.00 25 1004.2
20260510091505 48 229 0.0 0.0 0.00 0.00 0.00 24 1004.2
20260510090005 48 229 0.0 0.0 0.00 0.00 0.00 24 1004.2
20260510084507 48 229 0.0 0.0 0.00 0.00 0.00 25 1004.2
20260510083003 48 229 0.0 0.0 0.00 0.00 0.00 26 1004.2
20260510081502 48 229 0.0 0.0 0.00 0.00 0.00 27 1003.9
20260510080117 48 229 0.0 0.0 0.00 0.00 0.00 27 1003.9
20260510074618 48 229 0.0 0.0 0.00 0.00 0.00 27 1004.0
20260510073051 48 229 0.0 0.0 0.00 0.00 0.00 26 1004.0
20260510071556 48 229 0.0 0.0 0.00 0.00 0.00 27 1004.1
20260510070043 49 229 0.0 0.0 0.00 0.00 0.00 25 1004.6
20260510064552 49 229 0.0 0.0 0.00 0.00 0.00 20 1004.6
20260510063034 49 229 0.0 0.0 0.00 0.00 0.00 19 1004.7
20260510061529 49 229 0.0 0.0 0.00 0.00 0.00 16 1004.7
20260510060030 50 229 0.0 0.0 0.00 0.00 0.00 16 1005.1
20260510054525 50 229 0.0 0.0 0.00 0.00 0.00 17 1004.7
20260510053016 51 229 0.0 0.0 0.00 0.00 0.00 16 1004.7
20260510051516 51 229 0.0 0.0 0.00 0.00 0.00 16 1004.7
20260510050008 52 229 0.0 0.0 0.00 0.00 0.00 16 1004.6
20260510044503 53 229 0.0 0.0 0.00 0.00 0.00 16 1004.6
20260510043105 54 229 0.0 0.0 0.00 0.00 0.00 15 1004.6
20260510041609 54 229 0.0 0.0 0.00 0.00 0.00 15 1003.9
20260510040051 55 229 0.0 0.0 0.00 0.00 0.00 14 1004.1
20260510034547 57 229 0.0 0.0 0.00 0.00 0.00 15 1003.6
20260510033041 58 229 0.0 0.0 0.00 0.00 0.00 14 1003.5
20260510031537 59 229 0.0 0.0 0.00 0.00 0.00 14 1003.4
20260510030033 60 229 0.0 0.0 0.00 0.00 0.00 14 1004.7
20260510024528 61 229 0.0 0.0 0.00 0.00 0.00 15 1003.8
20260510023024 62 229 0.0 0.0 0.00 0.00 0.00 15 1003.9
20260510021520 63 229 0.0 0.0 0.00 0.00 0.00 16 1003.8
20260510020016 64 229 0.0 0.0 0.00 0.00 0.00 18 1005.0
20260510014520 65 193 0.0 0.0 0.00 0.00 0.00 17 1005.1
20260510013006 66 193 0.0 0.0 0.00 0.00 0.00 17 1005.1
20260510011503 67 193 1.0 0.0 0.00 0.00 0.00 18 1004.5
20260510010112 70 128 1.0 0.0 0.00 0.00 0.00 17 1004.1
20260510004600 70 186 1.0 0.0 0.00 0.00 0.00 17 1004.0
20260510003050 70 232 2.0 0.0 0.00 0.00 0.00 15 1004.0
20260510001545 72 198 1.0 0.0 0.00 0.00 0.00 15 1003.5
20260510000044 73 209 1.0 0.0 0.00 0.00 0.00 18 1003.4
20260509234556 71 155 2.0 0.0 0.00 0.00 0.00 17 1004.1
20260509233033 70 205 3.0 0.0 0.00 0.00 0.00 17 1004.2
20260509231532 72 199 2.0 0.0 0.00 0.00 0.00 17 1003.6
20260509230027 72 198 2.0 0.0 0.00 0.00 0.00 13 1003.9
20260509224519 73 120 2.0 0.0 0.00 0.00 0.00 15 1004.0
20260509223016 73 155 1.0 0.0 0.00 0.00 0.00 10 1004.4
20260509221525 72 136 2.0 0.0 0.00 0.00 0.00 10 1004.4